Russellville, AR

6:23 AM CDT on July 25, 2016 (GMT -0500)
Russellville Regional

Weather History for KRUE - February, 2014

Change the Weather History Date:

Friday, February 21, 2014

  Actual Average (KHOT) Record (KHOT)
Temperature  
Mean Temperature 46 °F -  
Max Temperature 64 °F 61 °F 87 °F (1986)
Min Temperature 28 °F 35 °F 18 °F (1978)
Degree Days  
Heating Degree Days 19    
Moisture  
Dew Point 23 °F    
Average Humidity 49    
Maximum Humidity 85    
Minimum Humidity 13    
Precipitation  
Precipitation 0.00 in - - ()
Sea Level Pressure  
Sea Level Pressure 30.03 in    
Wind  
Wind Speed 2 mph (SSW)    
Max Wind Speed 9 mph    
Max Gust Speed 16 mph    
Visibility 10 miles    
Events      
Averages and records for this station are not official NWS values.
T = Trace of Precipitation, MM = Missing Value Source: NWS Daily Summary

Daily Weather History Graph

Daily Weather History Graph

Search for Another Location

Airport or City:

Trip Planner

Search our weather history database for the weather conditions in past years. The results will help you decide how hot, cold, wet, or windy it might be!

Date:

Astronomy

Feb. 21, 2014 Rise Set
Actual Time 6:51 AM CST 6:00 PM CST
Civil Twilight 6:26 AM CST 6:26 PM CST
Nautical Twilight 5:56 AM CST 6:55 PM CST
Astronomical Twilight 5:27 AM CST 7:25 PM CST
Moon No Moon Rise 10:31 AM CST (2/21)
Length of Visible Light 12h 00m
Length of Day
11h 08m
Waning Gibbous, 60% of the Moon is Illuminated
Feb 21
Waning Gibbous
Feb 22
Last Quarter
Mar 1
New
Mar 8
First Quarter
Mar 16
Full

Hourly Weather History & Observations

Time (CST) Temp. Windchill Dew Point Humidity Pressure Visibility Wind Dir Wind Speed Gust Speed Precip Events Conditions
12:53 AM 42.1 °F - 28.0 °F 58% 30.00 in 10.0 mi Calm Calm - N/A   Clear
1:53 AM 43.0 °F 39.5 °F 25.0 °F 49% 30.01 in 10.0 mi WNW 5.8 mph - N/A   Clear
2:53 AM 39.9 °F 35.8 °F 26.1 °F 58% 30.00 in 10.0 mi NNE 5.8 mph - N/A   Clear
3:53 AM 33.1 °F - 26.1 °F 75% 30.00 in 10.0 mi Calm Calm - N/A   Clear
4:53 AM 30.0 °F - 25.0 °F 82% 30.04 in 10.0 mi Calm Calm - N/A   Clear
5:53 AM 28.9 °F - 25.0 °F 85% 30.06 in 10.0 mi Calm Calm - N/A   Clear
6:53 AM 28.0 °F - 24.1 °F 85% 30.07 in 10.0 mi Calm Calm - N/A   Clear
7:53 AM 32.0 °F - 28.0 °F 85% 30.09 in 10.0 mi Calm Calm - N/A   Clear
8:53 AM 43.0 °F - 26.1 °F 51% 30.11 in 10.0 mi Calm Calm - N/A   Clear
9:53 AM 48.9 °F - 24.1 °F 38% 30.11 in 10.0 mi South 5.8 mph - N/A   Clear
10:53 AM 53.1 °F - 19.9 °F 27% 30.11 in 10.0 mi North 3.5 mph - N/A   Clear
11:53 AM 55.9 °F - 19.9 °F 25% 30.07 in 10.0 mi South 5.8 mph - N/A   Clear
12:53 PM 57.9 °F - 18.0 °F 21% 30.04 in 10.0 mi Variable 6.9 mph - N/A   Clear
1:53 PM 61.0 °F - 12.9 °F 15% 30.01 in 10.0 mi SSW 9.2 mph 16.1 mph N/A   Clear
2:53 PM 63.0 °F - 12.9 °F 14% 29.99 in 10.0 mi South 8.1 mph - N/A   Clear
3:53 PM 64.0 °F - 12.0 °F 13% 29.99 in 10.0 mi Variable 6.9 mph - N/A   Clear
4:53 PM 63.0 °F - 12.0 °F 14% 29.98 in 10.0 mi South 4.6 mph - N/A   Clear
5:53 PM 53.1 °F - 25.0 °F 34% 29.98 in 10.0 mi Calm Calm - N/A   Clear
6:53 PM 44.1 °F - 26.1 °F 49% 30.00 in 10.0 mi Calm Calm - N/A   Clear
7:53 PM 39.9 °F - 26.1 °F 58% 30.02 in 10.0 mi Calm Calm - N/A   Clear
8:53 PM 42.1 °F 40.2 °F 24.1 °F 49% 30.03 in 10.0 mi Variable 3.5 mph - N/A   Clear
9:53 PM 41.0 °F - 27.0 °F 57% 30.04 in 10.0 mi Calm Calm - N/A   Clear
10:53 PM 37.0 °F - 26.1 °F 65% 30.04 in 10.0 mi Calm Calm - N/A   Clear
11:53 PM 35.1 °F - 25.0 °F 67% 30.04 in 10.0 mi Calm Calm - N/A   Clear